[{"OBJECT_NAME":"SAUDISAT 1C (SO-50)","OBJECT_ID":"2002-058C","EPOCH":"2026-09-12T01:41:55.666752","MEAN_MOTION":14.83206442,"ECCENTRICITY":0.00721591,"INCLINATION":64.5512,"RA_OF_ASC_NODE":220.134,"ARG_OF_PERICENTER":246.5319,"MEAN_ANOMALY":112.8191,"EPHEMERIS_TYPE":0,"CLASSIFICATION_TYPE":"U","NORAD_CAT_ID":27607,"ELEMENT_SET_NO":999,"REV_AT_EPOCH":27734,"BSTAR":0.000097802283,"MEAN_MOTION_DOT":0.0000068,"MEAN_MOTION_DDOT":0},{"OBJECT_NAME":"SAUDISAT 2","OBJECT_ID":"2004-025F","EPOCH":"2026-09-12T06:18:58.338144","MEAN_MOTION":14.56724629,"ECCENTRICITY":0.00253429,"INCLINATION":98.5564,"RA_OF_ASC_NODE":257.5199,"ARG_OF_PERICENTER":31.7773,"MEAN_ANOMALY":328.4948,"EPHEMERIS_TYPE":0,"CLASSIFICATION_TYPE":"U","NORAD_CAT_ID":28371,"ELEMENT_SET_NO":999,"REV_AT_EPOCH":17842,"BSTAR":0.000048129522,"MEAN_MOTION_DOT":0.00000166,"MEAN_MOTION_DDOT":0},{"OBJECT_NAME":"SAUDISAT 3","OBJECT_ID":"2007-012B","EPOCH":"2026-09-12T07:12:07.155648","MEAN_MOTION":14.71469078,"ECCENTRICITY":0.00136555,"INCLINATION":98.1538,"RA_OF_ASC_NODE":205.7916,"ARG_OF_PERICENTER":314.5231,"MEAN_ANOMALY":45.4859,"EPHEMERIS_TYPE":0,"CLASSIFICATION_TYPE":"U","NORAD_CAT_ID":31118,"ELEMENT_SET_NO":999,"REV_AT_EPOCH":4055,"BSTAR":0.000036041264,"MEAN_MOTION_DOT":0.00000172,"MEAN_MOTION_DDOT":0},{"OBJECT_NAME":"PISAT","OBJECT_ID":"2016-059B","EPOCH":"2026-09-12T06:13:34.117824","MEAN_MOTION":14.69120723,"ECCENTRICITY":0.00275392,"INCLINATION":97.8244,"RA_OF_ASC_NODE":252.0036,"ARG_OF_PERICENTER":288.4502,"MEAN_ANOMALY":71.3712,"EPHEMERIS_TYPE":0,"CLASSIFICATION_TYPE":"U","NORAD_CAT_ID":41784,"ELEMENT_SET_NO":999,"REV_AT_EPOCH":53252,"BSTAR":0.00011491638,"MEAN_MOTION_DOT":0.00000631,"MEAN_MOTION_DDOT":0},{"OBJECT_NAME":"FLYING LAPTOP","OBJECT_ID":"2017-042G","EPOCH":"2026-09-12T07:02:12.418656","MEAN_MOTION":15.01579794,"ECCENTRICITY":0.00162214,"INCLINATION":97.4996,"RA_OF_ASC_NODE":47.7012,"ARG_OF_PERICENTER":183.7209,"MEAN_ANOMALY":176.3898,"EPHEMERIS_TYPE":0,"CLASSIFICATION_TYPE":"U","NORAD_CAT_ID":42831,"ELEMENT_SET_NO":999,"REV_AT_EPOCH":49952,"BSTAR":0.0001276033,"MEAN_MOTION_DOT":0.00001599,"MEAN_MOTION_DDOT":0},{"OBJECT_NAME":"SALSAT","OBJECT_ID":"2020-068K","EPOCH":"2026-09-11T23:28:21.147456","MEAN_MOTION":15.30885844,"ECCENTRICITY":0.00094697,"INCLINATION":97.888,"RA_OF_ASC_NODE":263.4175,"ARG_OF_PERICENTER":9.1845,"MEAN_ANOMALY":350.9566,"EPHEMERIS_TYPE":0,"CLASSIFICATION_TYPE":"U","NORAD_CAT_ID":46495,"ELEMENT_SET_NO":999,"REV_AT_EPOCH":32863,"BSTAR":0.00020261281,"MEAN_MOTION_DOT":0.00005968,"MEAN_MOTION_DDOT":0}]